www.pogodaiklimat.ru

Погода и климат >> Архив погоды >> Испания >> Понтеведра


ПОГОДА в Понтеведре

  • Прогноз погоды в Понтеведре
  • Монитор погоды в Понтеведре

АРХИВ ПОГОДЫ в Понтеведре

Время (UTC), дата Ветер
(напр.,м/с)
 
Видим.   Явления Облачность Т
(С)
Тd
(С)
f
(%)
Тe
(С)
Тes
(С)
Комфортность P
(гПа)
Po
(гПа)
Тmin
(С)
Tmax
(С)
R
(мм)
R24
(мм)
S
(см)
08 19.06 ЮВ 2 20 км в посл. час морось н/о +16.1 +14.5 90 +16 +16 1014.1 1001.3 0.0
09 19.06 Ю 2 10 км 10/9 200 м
[Cu Sc Ac As]
+16.6 +14.6 88 +17 +17 1014.2 1001.5 0.0
10 19.06 Ю 3 16 км слаб. морось н/о +17.0 +14.3 84 +17 +17 1014.8 1002.1 0.0
11 19.06 ЮЗ 4 20 км н/о +17.5 +15.1 86 +17 +17 1015.1 1002.4
12 19.06 ЮЗ 4 12 км в посл. час ливневой дождь 9/9 300 м
[Cu Sc]
+18.2 +15.6 85 +18 +20 1015.3 1002.6 0.0
13 19.06 ЮЗ 5 20 км н/о +17.7 +15.0 84 +17 +17 1015.6 1002.9
14 19.06 ЮЗ 6 20 км слаб. морось н/о +18.6 +14.7 78 +19 +19 1015.8 1003.1 0.0
15 19.06 ЮЗ 4 15 км 8/6 300 м
[Cu med, cong Ac lent]
+19.1 +14.6 75 +20 +23 1015.7 1003.1 0.0
16 19.06 ЮЗ 3 20 км н/о +18.6 +15.5 82 +20 +20 1015.9 1003.2
17 19.06 ЮЗ 4 20 км н/о +17.6 +14.7 83 +17 +17 1015.9 1003.2 0.0
18 19.06 ЮЗ 4 20 км 9/9 300 м
[Cu Sc]
+17.0 +13.3 79 +17 +17 1016.3 1003.5 +19.9 0.0
19 19.06 ЮЗ 2 20 км н/о +16.7 +14.0 84 +17 +17 1016.5 1003.7
20 19.06 ЮЗ 2 20 км н/о +16.6 +14.8 89 +17 +17 1016.5 1003.7
21 19.06 ЮЗ 1 20 км н/о +15.9 +14.4 91 +17 +17 1016.7 1003.9
22 19.06 В 1 19 км н/о +15.6 +14.3 92 +16 +16 1016.9 1004.1
23 19.06 Ю 1 11 км н/о +15.0 +14.0 94 +16 +16 1017.3 1004.4
00 20.06 СВ 2 17 км н/о +15.2 +14.2 94 +15 +15 1017.0 1004.2
01 20.06 В 2 20 км н/о +14.9 +13.8 93 +15 +15 1016.9 1004.0
02 20.06 С 1 20 км н/о +15.0 +13.9 93 +16 +16 1016.4 1003.6
03 20.06 штиль 0 19 км н/о +14.9 +13.8 93 +15 +15 1016.0 1003.2
04 20.06 ЮВ 1 17 км н/о +14.8 +13.8 94 +16 +16 1016.1 1003.3
05 20.06 СВ 1 18 км н/о +14.8 +13.7 93 +16 +16 1015.9 1003.1
06 20.06 СВ 1 10 км 9/9 200 м
[Cu Sc]
+15.0 +13.9 93 +16 +16 1015.8 1003.0 +14.7
07 20.06 СЗ 1 19 км н/о +15.5 +14.0 91 +17 +17 1016.0 1003.2
08 20.06 З 1 20 км н/о +16.4 +14.4 88 +18 +18 1016.2 1003.4
09 20.06 СЗ 2 15 км 9/9 300 м
[Cu Sc]
+18.8 +14.5 76 +21 +22 комфорт 1015.9 1003.2
10 20.06 С 3 20 км н/о +20.5 +14.2 67 +23 +23 комфорт 1015.7 1003.1
11 20.06 З 4 20 км н/о +21.0 +14.6 67 +24 +24 комфорт 1015.8 1003.2
12 20.06 СЗ 3 20 км 9/5 300 м
[Cu med, cong Ac As]
+21.4 +14.5 65 +24 +28 комфорт 1015.5 1003.0
13 20.06 З 4 20 км н/о +21.8 +14.2 62 +25 +25 комфорт 1015.4 1002.9
14 20.06 СЗ 3 20 км н/о +21.9 +13.8 60 +25 +25 комфорт 1015.4 1002.9
15 20.06 ЮЗ 3 15 км в посл. час ливневой дождь 9/5 300 м
[Cu med, cong Ac As]
+21.3 +14.9 67 +24 +27 комфорт 1015.3 1002.8 0.0
16 20.06 З 3 20 км н/о +20.9 +13.8 64 +24 +24 комфорт 1015.2 1002.6
17 20.06 СЗ 3 20 км н/о +20.8 +14.2 66 +24 +24 комфорт 1015.1 1002.5
18 20.06 СЗ 3 20 км {ливн. осадки} 9/5 300 м
[Cu Sc Ac As]
+20.3 +14.0 67 +23 +23 комфорт 1015.5 1002.9 +22.4 0.0
19 20.06 СЗ 3 20 км в посл. час морось н/о +19.3 +13.0 67 +21 +21 комфорт 1015.6 1003.0 0.0
20 20.06 СЗ 2 20 км н/о +18.9 +12.6 67 +20 +20 1015.9 1003.2
21 20.06 С 2 20 км н/о +16.8 +11.9 73 +17 +17 1016.7 1003.9 0.0
22 20.06 СВ 2 20 км н/о +16.4 +11.1 71 +17 +17 1017.2 1004.4
23 20.06 В 1 20 км н/о +15.1 +10.9 76 +16 +16 1017.8 1004.9
00 21.06 СВ 1 20 км дымка н/о +13.9 +11.6 86 +15 +15 1017.9 1005.0
01 21.06 СВ 1 20 км н/о +13.0 +10.9 87 +13 +13 1018.2 1005.2
02 21.06 В 2 20 км н/о +12.4 +10.3 87 +12 +12 1018.1 1005.1
03 21.06 СВ 2 20 км н/о +12.5 +10.2 86 +12 +12 1018.1 1005.1
04 21.06 СВ 2 20 км н/о +12.3 +10.2 87 +11 +11 1017.9 1004.9
05 21.06 В 1 20 км н/о +11.8 +9.9 88 +12 +12 1018.2 1005.2
06 21.06 штиль 0 20 км дымка н/о +11.5 +9.9 90 +11 +12 1018.5 1005.5 +11.4
07 21.06 З 1 20 км н/о +13.2 +11.3 88 +14 +14 1018.8 1005.8
08 21.06 З 1 20 км н/о +16.7 +12.4 76 +18 +18 1018.5 1005.7
09 21.06 ЮЗ 1 20 км 1/1 300 м
[Cu hum]
+18.6 +11.7 64 +20 +31 1018.1 1005.4
10 21.06 СЗ 2 20 км н/о +21.1 +12.5 58 +23 +23 комфорт 1018.0 1005.4
11 21.06 С 2 20 км н/о +22.2 +11.9 52 +25 +25 комфорт 1017.9 1005.3
12 21.06 ЮЗ 4 20 км 3/3 300 м
[Cu med, cong]
+22.1 +13.2 57 +25 +35 комфорт 1017.9 1005.3 0.0
13 21.06 З 4 20 км слаб. морось н/о +21.6 +13.5 60 +24 +24 комфорт 1017.7 1005.1 0.0
14 21.06 ЮЗ 4 20 км в посл. час морось н/о +22.4 +13.5 57 +25 +25 комфорт 1017.4 1004.9 0.0
15 21.06 ЮЗ 4 20 км 1/1 300 м
[Cu med, cong]
+22.0 +13.6 59 +25 +35 комфорт 1017.1 1004.6 0.0
16 21.06 ЮЗ 4 20 км н/о +22.2 +13.0 56 +25 +25 комфорт 1016.9 1004.4
17 21.06 ЮЗ 4 20 км н/о +22.0 +12.8 56 +25 +25 комфорт 1016.7 1004.2
18 21.06 ЮЗ 4 15 км 4/0 1500 м
[Ac lent Ci sp]
+21.2 +12.3 57 +23 +25 комфорт 1016.6 1004.0 +22.8 0.0
19 21.06 Ю 2 20 км н/о +20.6 +12.6 60 +24 +24 комфорт 1016.8 1004.2
20 21.06 Ю 2 20 км н/о +18.4 +11.5 64 +20 +20 1016.9 1004.2
21 21.06 ЮВ 1 20 км н/о +16.7 +11.2 70 +18 +18 1016.8 1004.0
22 21.06 В 2 20 км н/о +16.0 +12.0 77 +16 +16 1016.6 1003.8
23 21.06 В 2 20 км н/о +15.3 +11.9 80 +15 +15 1016.3 1003.5
00 22.06 ЮВ 1 20 км н/о +14.5 +11.8 84 +16 +16 1016.1 1003.2
01 22.06 В 1 20 км н/о +14.2 +11.7 85 +15 +15 1016.1 1003.2
02 22.06 СВ 2 20 км н/о +14.1 +11.6 85 +14 +14 1015.4 1002.5
03 22.06 СВ 1 19 км н/о +13.9 +11.6 86 +14 +14 1014.9 1002.0
04 22.06 СВ 2 20 км н/о +13.7 +11.6 87 +13 +13 1014.0 1001.1
05 22.06 СВ 2 20 км н/о +13.7 +11.6 87 +13 +13 1013.8 1000.9
06 22.06 ЮВ 1 20 км н/о +13.8 +12.2 90 +14 +14 1014.4 1001.5 +13.6
07 22.06 З 1 19 км н/о +15.0 +13.0 88 +16 +16 1014.4 1001.6
08 22.06 СЗ 1 20 км н/о +15.8 +13.3 85 +16 +16 1014.3 1001.5
09 22.06 Ю 1 20 км н/о +17.2 +13.9 81 +18 +18 1013.6 1000.9
10 22.06 ЮЗ 1 20 км н/о +17.8 +14.3 80 +19 +19 1013.1 1000.4
11 22.06 Ю 3 20 км н/о +20.5 +13.2 63 +23 +23 комфорт 1012.7 1000.1
12 22.06 З 4 20 км 8/5 300 м
[Sc Ac und Ci sp]
+19.8 +13.0 65 +22 +27 комфорт 1013.0 1000.4 0.0
13 22.06 ЮЗ 5 18 км н/о +20.2 +13.9 67 +22 +22 комфорт 1012.7 1000.1
15 22.06 ЮЗ 3 8000 м слаб. ливневой дождь 9/5 300 м
[Sc Ac As]
+18.9 +11.7 63 +20 +23 1012.0 999.4 0.0
16 22.06 ЮЗ 2 20 км слаб. дождь н/о +18.7 +11.7 64 +20 +20 1011.8 999.2 0.0
17 22.06 ЮЗ 2 19 км н/о +19.1 +11.6 62 +21 +21 комфорт 1011.7 999.1 0.0
18 22.06 Ю 1 15 км в посл. час ливневой дождь 10/6 300 м
[Sc Ac As]
+19.1 +10.9 59 +21 +21 комфорт 1011.4 998.8 +21.2 0.0
19 22.06 В 1 20 км н/о +18.8 +11.6 63 +21 +21 комфорт 1011.4 998.8
20 22.06 Ю 2 20 км н/о +18.6 +8.5 52 +20 +20 1011.1 998.5
21 22.06 Ю 3 20 км н/о +18.8 +8.4 51 +20 +20 1011.4 998.8
22 22.06 Ю 2 20 км н/о +18.3 +8.5 53 +19 +19 1011.4 998.7
23 22.06 В 3 16 км слаб. морось н/о +15.5 +11.9 79 +15 +15 1011.4 998.6 1
00 23.06 ЮЗ 2 11 км дождь н/о +14.9 +12.6 86 +15 +15 1011.1 998.3 2
01 23.06 Ю 2 15 км слаб. морось н/о +14.9 +12.8 87 +15 +15 1011.0 998.2 0.2
02 23.06 Ю 4 20 км в посл. час морось н/о +15.3 +13.5 89 +14 +14 1010.6 997.8 0.0
03 23.06 Ю 2 19 км н/о +15.6 +13.8 89 +15 +15 1010.3 997.6 0.2
04 23.06 З 1 19 км н/о +15.6 +14.0 90 +16 +16 1010.2 997.5
05 23.06 ЮЗ 1 2900 м слаб. морось н/о +15.3 +14.3 94 +16 +16 1010.2 997.5 0.2
06 23.06 СВ 1 7000 м в посл. час снег {дождь} н/о +15.5 +14.7 95 +17 +17 1010.3 997.6 +14.7 0.2
07 23.06 Ю 1 20 км н/о +16.4 +14.9 91 +17 +17 1010.7 998.0
08 23.06 Ю 2 20 км н/о +16.9 +15.2 90 +17 +17 1011.2 998.5
09 23.06 Ю 2 20 км 9/9 300 м
[Cu Sc]
+19.1 +15.6 80 +21 +22 комфорт 1011.2 998.6
10 23.06 ЮЗ 3 16 км н/о +18.1 +15.4 84 +18 +18 1011.4 998.8
11 23.06 ЮЗ 4 14 км н/о +19.9 +16.1 79 +22 +22 комфорт 1011.5 998.9
12 23.06 ЮЗ 4 20 км 9/5 300 м
[Cu med, cong Ac und Ci sp]
+19.8 +15.2 75 +22 +26 комфорт 1011.8 999.2
13 23.06 ЮЗ 5 11 км н/о +19.6 +14.6 73 +21 +21 комфорт 1012.0 999.4
14 23.06 ЮЗ 4 10 км н/о +21.1 +15.4 70 +24 +24 комфорт 1011.8 999.3
15 23.06 ЮЗ 4 12 км 8/4 300 м
[Cu med, cong Ac As]
+20.6 +14.9 70 +24 +27 комфорт 1011.9 999.4
16 23.06 ЮЗ 4 12 км н/о +19.1 +15.0 77 +21 +21 комфорт 1012.1 999.5
17 23.06 ЮЗ 3 13 км н/о +19.3 +15.0 76 +21 +21 комфорт 1011.9 999.3
18 23.06 З 2 12 км 9/4 300 м
[Cu Sc Ac As]
+18.3 +14.6 79 +19 +20 1012.2 999.6 +21.5
19 23.06 ЮЗ 2 13 км н/о +17.6 +14.3 81 +18 +18 1012.8 1000.1
20 23.06 З 2 12 км н/о +17.7 +14.2 80 +18 +18 1012.9 1000.2
21 23.06 Ю 1 7000 м н/о +16.5 +14.1 86 +18 +18 1013.4 1000.7
22 23.06 СВ 1 6000 м н/о +16.1 +14.1 88 +17 +17 1013.8 1001.0
23 23.06 В 2 3800 м н/о +15.6 +14.0 90 +16 +16 1013.8 1001.0
00 24.06 СВ 3 н/о н/о +15.3 +13.5 89 +15 +15 1013.4 1000.6
01 24.06 В 2 8000 м н/о +15.2 +13.6 90 +15 +15 1013.3 1000.5
02 24.06 В 3 10 км н/о +14.6 +13.1 91 +14 +14 1013.2 1000.4
03 24.06 СВ 2 14 км н/о +14.4 +12.8 90 +14 +14 1012.8 1000.0
04 24.06 В 2 13 км н/о +14.2 +12.9 92 +14 +14 1013.3 1000.5
05 24.06 В 2 13 км н/о +13.9 +12.5 91 +14 +14 1013.3 1000.4
06 24.06 В 1 15 км н/о +13.9 +12.6 92 +14 +14 1013.7 1000.8 +13.8
07 24.06 СВ 2 17 км н/о +14.4 +12.8 90 +14 +14 1013.5 1000.7
08 24.06 СВ 2 20 км н/о +16.8 +13.5 81 +17 +17 1013.3 1000.6
09 24.06 ЮВ 1 15 км 4/1 300 м
[Cu Sc Ac und Ci sp]
+18.5 +14.0 75 +20 +29 1013.6 1000.9
10 24.06 Ю 1 19 км н/о +19.2 +15.1 77 +22 +22 комфорт 1013.6 1001.0
11 24.06 Ю 3 20 км н/о +21.5 +13.9 62 +24 +24 комфорт 1013.6 1001.1
12 24.06 ЮЗ 4 15 км 8/6 300 м
[Cu med, cong Ac lent]
+18.6 +14.7 78 +19 +22 1013.8 1001.2
13 24.06 ЮЗ 4 15 км н/о +20.2 +15.4 74 +23 +23 комфорт 1013.7 1001.1
14 24.06 ЮЗ 4 13 км н/о +19.8 +15.0 74 +22 +22 комфорт 1013.7 1001.1
15 24.06 ЮЗ 4 10 км 6/5 300 м
[Cu Sc Ac lent]
+19.9 +15.9 78 +22 +26 комфорт 1014.2 1001.6
16 24.06 ЮЗ 5 15 км н/о +20.8 +15.1 70 +24 +24 комфорт 1014.2 1001.6
17 24.06 ЮЗ 3 14 км н/о +18.9 +15.6 81 +20 +20 1014.1 1001.5 0.4
18 24.06 ЮЗ 3 10 км слаб. ливневой дождь 8/6 300 м
[Cu med, cong Ac lent]
+17.7 +15.7 88 +18 +18 1014.5 1001.8 +22.0 1
19 24.06 ЮЗ 3 19 км н/о +18.3 +13.8 75 +19 +19 1014.8 1002.1
20 24.06 ЮЗ 2 20 км н/о +18.0 +13.9 77 +19 +19 1015.0 1002.3
21 24.06 ЮВ 1 16 км н/о +16.1 +13.6 85 +17 +17 1015.6 1002.8
22 24.06 СВ 1 17 км н/о +15.6 +13.4 87 +17 +17 1015.9 1003.1
23 24.06 СВ 2 16 км н/о +15.0 +13.0 88 +15 +15 1016.0 1003.2
00 25.06 В 2 16 км н/о +14.5 +13.0 91 +14 +14 1016.2 1003.3
01 25.06 В 3 17 км н/о +14.1 +12.5 90 +13 +13 1015.8 1002.9
02 25.06 В 1 14 км н/о +13.5 +12.1 91 +14 +14 1015.5 1002.6
03 25.06 СВ 3 18 км н/о +13.2 +12.1 93 +12 +12 1015.4 1002.5
04 25.06 СВ 3 18 км н/о +13.0 +11.7 92 +12 +12 1015.7 1002.8
05 25.06 СВ 4 16 км н/о +12.7 +11.4 92 +11 +11 1015.6 1002.7
06 25.06 СВ 3 15 км 1/0 1500 м
[Ac trans]
+13.2 +11.4 89 +12 +13 1015.8 1002.9 +12.4
07 25.06 СВ 2 20 км н/о +14.4 +11.9 85 +14 +14 1015.8 1002.9
08 25.06 ЮЗ 1 20 км н/о +17.3 +13.2 77 +19 +19 1015.6 1002.9
09 25.06 Ю 1 20 км 3/1 600 м
[Sc Ac trans Ci sp]
+20.0 +13.5 66 +23 +33 комфорт 1015.4 1002.8
10 25.06 З 2 20 км н/о +21.9 +14.3 62 +25 +25 комфорт 1015.4 1002.9
11 25.06 ЮЗ 3 18 км н/о +22.0 +13.1 57 +25 +25 комфорт 1015.8 1003.3
12 25.06 ЮЗ 3 20 км 3/1 300 м
[Cu med, cong Ci sp]
+22.2 +13.0 56 +25 +39 комфорт 1015.8 1003.3
13 25.06 ЮЗ 4 20 км н/о +22.6 +12.8 54 +25 +25 комфорт 1015.4 1002.9
14 25.06 ЮЗ 4 18 км н/о +21.5 +12.9 58 +24 +24 комфорт 1015.5 1002.9
15 25.06 ЮЗ 4 20 км 5/3 300 м
[Cu Sc Ac trans Ci sp]
+22.1 +12.9 56 +25 +31 комфорт 1015.2 1002.7
16 25.06 ЮЗ 3 16 км н/о +21.4 +13.1 59 +24 +24 комфорт 1015.8 1003.2
17 25.06 ЮЗ 2 19 км н/о +20.9 +14.3 66 +25 +25 комфорт 1014.9 1002.3
18 25.06 ЮЗ 2 15 км 9/6 300 м
[Cu Sc Ac As]
+20.0 +13.2 65 +23 +23 комфорт 1016.1 1003.5 +23.2
19 25.06 СЗ 2 17 км н/о +19.2 +13.8 71 +21 +21 комфорт 1014.9 1002.3 0.0
20 25.06 Ю 2 4300 м дождь н/о +17.9 +15.5 86 +19 +19 1016.5 1003.8 0.6
21 25.06 С 1 8000 м дождь н/о +16.8 +15.1 90 +18 +18 1015.8 1003.1 1
22 25.06 СВ 1 9000 м в посл. час дождь н/о +16.6 +15.5 93 +17 +17 1016.4 1003.6 0.2
23 25.06 Ю 1 9000 м н/о +16.4 +15.4 94 +18 +18 1016.3 1003.5
00 26.06 СВ 2 9000 м дымка н/о +16.1 +15.3 95 +16 +16 1015.3 1002.5 0.2
01 26.06 СВ 3 11 км н/о +15.8 +15.0 95 +15 +15 1014.7 1001.9
02 26.06 В 2 6000 м н/о +15.4 +14.6 95 +15 +15 1014.3 1001.5
03 26.06 ЮЗ 1 6000 м н/о +15.4 +14.6 95 +17 +17 1014.0 1001.2
04 26.06 ЮВ 2 4500 м н/о +15.0 +14.2 95 +15 +15 1013.7 1000.9
05 26.06 С 2 13 км н/о +14.9 +13.9 94 +15 +15 1013.2 1000.4
06 26.06 ЮЗ 2 10 км 9/6 200 м
[Cu Sc Ac As]
+15.2 +14.4 95 +15 +15 1013.7 1000.9 +14.8
07 26.06 Ю 2 6000 м слаб. морось с дождем н/о +15.6 +15.0 96 +16 +16 1014.3 1001.5 0.0
08 26.06 Ю 2 9000 м слаб. морось с дождем н/о +15.8 +15.2 96 +16 +16 1014.8 1002.0 0.4

 

Местоположение метеостанции Понтеведра (Испания): широта 42.43 долгота -8.62 высота над уровнем моря 108 м.

В архиве по умолчанию представлена погода в Понтеведре за последнюю неделю. Архивные данные за месяц целиком и за предыдущие месяцы, начиная с января 2011 года, Вы можете получить, выбрав интересующий диапазон дат из раскрывающегося списка и нажав кнопку "Ввод!".


*Определитесь, кто Вы:
робот инопланетянин человек

Внимание! Время в таблицах - всемирное. Для получения местного времени необходимо прибавить поправку, которая равна 1 ч.

Смотрите также архив погоды в соседних городах и на ближайших метеорологических станциях:

Погода в Виго (Испания) (22 км)
Погода в Падроне (Испания) (34 км)
Погода в Карбальино (Испания) (44 км)
Погода в Сантьяго-де-Компостеле (Испания) (50 км)
Погода в Сантьяго (Испания) (55 км)
Погода в Оренсе (Испания) (63 км)
Погода в Фистерре (Испания) (77 км)
Погода в Хинсо-де-Лимии (Испания) (83 км)
Погода в Виана-ду-Каштелу (Португалия) (90 км)
Погода на Кабо Вилан (Испания) (94 км)

Пояснения к столбцам:

Ветер - указаны скорость ветра в м/с - средняя за 10 мин, порывы в срок и между сроками (в фигурных скобках) и направление, откуда дует ветер: С - северный, СВ - северо-восточный, В - восточный, ЮВ - юго-восточный, Ю - южный, ЮЗ - юго-западный, З - западный, СЗ - северо-западный.
Видимость - горизонтальная дальность видимости в метрах или километрах. При видимости от 1 до 10 км при отсутствии осадков обычно наблюдается дымка, при ухудшении видимости до 1 км и менее - туман. В сухую погоду видимость может ухудшаться дымом, пылью или мглою.
Явления - указаны атмосферные явления, наблюдавшиеся в срок или в последний час перед сроком; фигурными скобками обозначены явления, наблюдавшиеся между сроками (за 1-3 часа до срока); квадратными скобками обозначены град или гололедные отложения с указанием их диаметра в мм.
Облачность - указаны через наклонную черту общая и нижняя облачность в баллах и высота нижней границы облаков в метрах; квадратными скобками обозначены формы облаков: Ci - перистые, Cs - перисто-слоистые, Cc - перисто-кучевые, Ac - высококучевые, As - высокослоистые, Sc - слоисто-кучевые, Ns - слоисто-дождевые, Cu - кучевые, Cb - кучево-дождевые. Подробнее классификацию облаков см. в Атласе облаков (PDF).
T - Температура воздуха - температура, измеренная на высоте 2 м над землей.
Td - Температура точки росы - температура, при понижении до которой содержащийся в воздухе водяной пар достигнет насыщения.
f - Относительная влажность воздуха - влажноcть воздуха, измеренная на высоте 2 м над землей.
Te - Эффективная температура - температура, которую ощущает одетый по сезону человек в тени. Характеристика душности погоды. При расчете учитывается влияние влажности воздуха и скорости ветра на теплоощущения человека.
Tes - Эффективная температура на солнце - температура, которую ощущает человек, с поправкой на солнечный нагрев. Характеристика знойности погоды. Зависит от высоты солнца над горизонтом, облачности и скорости ветра. Ночью, в пасмурную погоду, а также при ветре 12 м/с и более поправка равна нулю.
P - Атмосферное давление - приведенное к уровню моря атмосферное давление.
Po - Атмосферное давление - измеренное на уровне метеостанции атмосферное давление.
Tmin - Минимальная температура - минимум температуры воздуха на высоте 2 м над землей.
Tmax - Максимальная температура - максимум температуры воздуха на высоте 2 м над землей.
R - Количество осадков - Количество выпавших осадков за период времени, мм. При наведении курсора мыши на число - период времени, за который выпало указанное количество осадков.
R24 - Количество осадков - Количество выпавших осадков за 24 часа, мм.
S - Снежный покров - Высота снежного покрова, см. При наведении курсора мыши на число - состояние снежного покрова и степень покрытия местности в баллах.